User: anonymous   Login
Location: Stonelick Lake State Park
(39.2170°N, 84.0850°W)
Time: 09:37:28
(UTC-05:00)
Language:

Abrixas rocket - Orbit

View from above orbital plane
View from above orbital plane
View from above satellite
View from above satellite

Ground track
Ground track

The orbit data is extracted from the following two-line orbital elements,

1 25723U 99022C   15030.60954914  .00014341  00000-0  40211-3 0  8632
2 25723 048.4221 066.5369 0014027 216.7211 286.0367 15.36636559872054
Epoch (UTC): 30 January 2015 14:37:45
Eccentricity: 0.0014027
inclination: 48.4221°
perigee height: 446 km
apogee height: 465 km
right ascension of ascending node: 66.5369°
argument of perigee: 216.7211°
revolutions per day: 15.36636559
mean anomaly at epoch: 286.0367°
orbit number at epoch: 87205

The dashed part of the orbit path shows where the satellite is in the earth's shadow,  

DLR